Погода в Кингисеппе

Погода в Кингисеппе : погода сейчас, прогноз погоды и архив. Всё, что Вы хотите узнать о погоде в Кингисеппе!

Поиск расширенной информации на нашем сайте:

Другие новости

Новости СМИ2

Главная страница сайта

Новости сайта

02.10.2013

Напоминаем, что на нашем новом сайте вы можете получить высокодетализированные прогнозы погоды по пунктам России, СНГ и мира (включающие важные для авиации метеовеличины, такие как направление и скорость ветра, видимость, явления погоды, количество и форма облачности, нижняя и верхняя граница облачности), а также ознакомиться с разнообразными материалами по авиационной метеорологии и подборкой полезных ссылок на эту тему.

Сайт Метеоцентр.Азия посвящён разработке технологий оптимизации авиаметеорологического обслуживания, включая проектирование и перспективное создание нескольких автоматизированных авиаметеорологических систем:
- система выпуска высокодетальных прогностических карт явлений погоды для нижнего воздушного пространства по России и ближнему зарубежью;
- система верификации прогнозов TAF (выпускаемых синоптиками официальных АМСГ РФ и ближнего зарубежья) и AUTOTAF (выпускаемых сайтом Метеоцентр.Азия) - выявление ошибок, онлайн-сопоставление с фактической погодой METAR, автоматическое внесение коррективов в прогнозы при резком отклонении фактической погоды от прогноза, подсчёт оправдываемости прогнозов по элементам и в целом;
- система обработки, анализа и отображения авиаметеорологической информации для применения провайдерами метеорологической информации.


Погода в Кингисеппе - сегодня

Время (UTC), дата Ветер
(°,м/с) 
Видим.   Явления Облачность Т
(°С)
Тd
(°С)
f(%) Тe
(°С)
Pmin
(гПа)
dP
(гПа)
Po
(мм)
O2
(г/м3)
Тmin Tmax R s Состояние
почвы
18 22.05.17 300 (СЗ) 20000 м    9/3 1000 м верхняя 
[Sc|Ci]
+14 +4.5 53 +15  1010.6  -0.3  756  289    +20.2       
21 22.05.17 тихо ()   10 км    10/0 верхняя 
[Cs]
+11 +7 76 +11  1010  -0.6  756  292           
00 23.05.17 тихо ()   10 км    10/0 верхняя 
[Cs]
+8.5 +6.4 87 +9  1009.6  -0.4  755  294           
03 23.05.17 290 (З) 10 км    10/0 средняя 
[As trans]
+10.7 +7.7 82 +11  1009.6  755  292  +8         
06 23.05.17 270 (З) 20000 м    10/0 верхняя 
[Cs]
+13.5 +8.2 70 +14  1010.3  0.7  756  289  +8        сухая 
09 23.05.17 280 (З) 20000 м    8/1 600 м верхняя 
[Cu med, cong|Ci sp]
+17.1 +4.4 43 +18  1010.7  0.6  756  286           
12 23.05.17 300 (СЗ) 3{10}  20000 м    5/4 600 м верхняя 
[Sc diur, vesp|Ci fib]
+17.6 +3.9 40 +18  1010.4  -0.2  756  286           
15 23.05.17 310 (СЗ) 20000 м    4/3 600 м верхняя 
[Sc diur, vesp|Ci fib]
+18.5 +2.2 34 +19  1010.2  -0.2  756  285           
18 23.05.17 310 (СЗ) 10 км    6/0 средняя, верхняя 
[Ac trans|Ci fib]
+14.3 +2.3 44 +15  1010.3  0.1  756  289    +19.1       
21 23.05.17 тихо ()   10 км    4/0 средняя, верхняя 
[Ac trans|Ci fib]
+8.2 +5.3 82 +8  1010.9  0.5  756  295           
00 24.05.17 тихо ()   10 км    10/0 средняя 
[Ac und]
+8.3 +6.2 87 +8  1011.1  0.2  756  295           
03 24.05.17 080 (В) 10 км  в посл. час ливневой дождь  9/3 600 м кучево-дожд., средняя 
[Cb cap|Ac As]
+8.8 +8.2 96 +10  1010.8  -0.2  756  294  +7.3    0.3     
06 24.05.17 тихо ()   10 км  {ливн. осадки}  8/3 600 м средняя, верхняя 
[Sc|Ac trans|Ci fib]
+13.4 +9.5 77 +14  1011.5  0.7  757  289  +7.3    0.3    влажная 
09 24.05.17 230 (ЮЗ) 10 км    10/10 700 м 
[Sc]
+14.4 +8.7 69 +16  1012.2  0.7  757  288           
12 24.05.17 070 (В) 10 км  в посл. час ливневой дождь  10/10 660 м кучево-дожд. 
[Cb cap]
+13.7 +10.8 83 +17  1012.4  758  289           
15 24.05.17 090 (В) 10 км    9/4 600 м средняя, верхняя 
[Sc|Ac As|Ci fib]
+15.1 +8.6 65 +16  1011.5  -0.9  757  287         
18 24.05.17 060 (СВ) 10 км    10/6 960 м кучево-дожд., средняя, верхняя 
[Cb cap|As trans|Ci fib]
+14.5 +9.5 72 +16  1011.2  -0.3  757  288    +16     
21 24.05.17 090 (В) 10 км  слаб. ливневой дождь  9/9 720 м кучево-дожд. 
[Cb cap]
+11.7 +9.8 88 +14  1011.1  0.1  757  291           
00 25.05.17 050 (СВ) 10 км  слаб. ливневой дождь  9/9 300 м кучево-дожд. 
[Cb cap]
+10.6 +10.6 100 +14  1010.4  -0.7  756  291           
03 25.05.17 180 (Ю) 10 км  {ливн. осадки}  10/10 120 м 
[St]
+10 +10 100 +12  1009.5  -1  755  292  +10       
06 25.05.17 140 (ЮВ) 10 км  {ливн. осадки}  9/9 210 м 
[St]
+12.5 +10.8 89 +16  1009.3  -0.2  755  289  +9.9      влажная 
09 25.05.17 310 (СЗ) 10 км  в посл. час ливневой дождь  10/10 270 м кучево-дожд. 
[Cb cap]
+12 +11.1 94 +14  1009.6  0.3  755  289           
12 25.05.17 250 (З) 20000 м  {ливн. осадки}  9/3 600 м средняя, верхняя 
[Sc|Ac trans|Ci fib]
+16.4 +11.3 72 +21  1008.9  -0.7  755  285           
15 25.05.17 300 (СЗ) н/о    н/о 
+16.8 +3.1 40 +17  1008.1  -0.7  754  286           
18 25.05.17 300 (СЗ) 10 км    6/3 600 м средняя, верхняя 
[Sc|Ac trans|Ci fib]
+14.2 +4.8 53 +15  1007.5  -0.7  754  288    +18.6     
Время (UTC), дата Ветер
(°,м/с) 
Видим.   Явления Облачность Т
(°С)
Тd
(°С)
f(%) Тe
(°С)
Pmin
(гПа)
dP
(гПа)
Po
(мм)
O2
(г/м3)
Тmin Tmax R s Состояние
почвы

Для получения пояснительной информации подведите курсор к названию столбца.

ПОГОДА в Кингисеппе - архив

Всё, что Вы хотите узнать о погоде в Кингисеппе - удобно и подробно!

Выберите нужную дату (начиная с 1 января 2015* года) и нажмите кнопку "Найти".
Будут отображены архивные сводки погоды по пункту Кингисепп, начиная с указанной даты.


Отображать данные в формате CSV (для использования в таблицах Excel)


Внимание! Наш архив погоды предназначен исключительно для личного некоммерческого использования в познавательных целях. Если Вам необходимы официальные справки о состоянии погоды (для производственных, юридических, коммерческих и т.п. целей), обращайтесь в органы Росгидромета.

*Примечание: данная дата относится к архиву по метеостанциям СССР (Россия, СНГ, Балтия).
Архив по метеостанциям Зарубежной Европы и Азии (кроме Китая) хранится 10 дней, по другим регионам земного шара (Китай, Африка, Америка, Австралия, Океания) - 1 день.

Кингисепп - район местоположения метеостанции


Название, широта, долгота, высота метеостанции:
Кингисепп 59.4°ш. 28.6°д. 19 м над ур. моря [Российская Федерация]

Дополнительная информация

В oтличие oт бoльшинства пoгoдных сайтoв мы публикуем пoдрoбную метеoинфoрмацию в детальнoм прoфессиoнальнoм фoрмате.

Характеристики температуры и влажнoсти вoздуха измеряются на высoте 2 м в тени вдали oт зданий и деревьев.
Скoрoсть ветра измеряется на высoте 10 м (на урoвне рoста челoвека скoрoсть ветра ниже в 1.5-2 раза). Если метеoстанция нахoдится в гoрoде или в лесу, тo скoрoсть ветра занижена на 2-4 м/с пo сравнению с oткрытым местoм. Скoрoсть ветра над акватoриями крупных рек и oзёр, а также на вершинах хoлмoв на 2-5 м/с выше, чем в oбычных услoвиях.
Атмoсфернoе давление в разных тoчках местнoсти мoжет значительнo oтличаться oт давления на метеoстанции, в зависимoсти oт услoвий рельефа (при пoдъёме на 10 м давление пoнижается примернo на 1 мм рт.ст.).